Location: Newark
(27.9675°N, 86.8869°E)
Time: 08:11:22
(UTC+00:00)

Courier 1B Rocket - Pass Details

Date: 24 October 2019
Orbit: 920 x 1202 km, 28.2° (Epoch: 17 November)

Event Time Altitude Azimuth Distance (km) Brightness Sun altitude
Rises 18:36:16 0° 239° (WSW) 3,763 - -71.4°
Reaches altitude 10° 18:39:07 10° 234° (SW) 2,769 - -71.1°
Maximum altitude 18:45:31 50° 161° (SSE) 1,197 - -70.2°
Drops below altitude 10° 18:51:36 10° 87° (E) 2,630 - -69.4°
Sets 18:54:14 0° 82° (E) 3,558 - -69.0°
